GW1328 Weather Reports


time (UTC)temp
F
wind
direction
speed
knots
gust
knots
rain 1hr
in
rain 24hr
in
rain mn
in
humidity
%
barometer
mb
20260504232036 61 0 0.0 0.0 0.00 0.01 0.01 62 1005.2
20260504231548 62 0 0.0 0.0 0.00 0.01 0.01 58 1005.2
20260504231034 63 0 0.0 1.7 0.00 0.01 0.01 57 1005.2
20260504230534 64 0 0.0 2.6 0.00 0.01 0.01 53 1005.1
20260504230049 64 0 0.9 2.6 0.00 0.01 0.01 51 1005.0
20260504225536 64 250 0.0 2.6 0.00 0.01 0.01 51 1005.0
20260504225037 65 250 0.9 2.6 0.00 0.01 0.01 50 1005.0
20260504224546 65 0 0.9 2.6 0.00 0.01 0.01 46 1005.1
20260504224035 65 250 0.9 3.5 0.00 0.01 0.01 47 1005.1
20260504223537 65 250 1.7 5.2 0.00 0.01 0.01 46 1005.0
20260504223100 65 250 1.7 5.2 0.00 0.01 0.01 48 1004.9
20260504222535 65 265 2.6 5.2 0.00 0.01 0.01 47 1005.0
20260504222034 64 213 3.5 5.2 0.00 0.01 0.01 47 1005.0
20260504221601 64 202 1.7 4.3 0.00 0.01 0.01 49 1005.1
20260504221034 64 0 1.7 7.8 0.00 0.01 0.01 48 1005.1
20260504220534 64 190 3.5 9.6 0.00 0.01 0.01 48 1005.0
20260504220055 64 248 2.6 9.6 0.00 0.01 0.01 48 1005.1
20260504215534 64 242 3.5 9.6 0.00 0.01 0.01 48 1005.1
20260504215034 64 236 3.5 9.6 0.00 0.01 0.01 48 1005.1
20260504214554 64 320 3.5 9.6 0.00 0.01 0.01 49 1005.2
20260504214035 64 232 2.6 13.9 0.00 0.01 0.01 48 1005.2
20260504213534 64 260 3.5 13.9 0.00 0.01 0.01 48 1005.2
20260504213100 64 267 6.1 13.9 0.00 0.01 0.01 48 1005.3
20260504212531 64 233 6.1 12.2 0.00 0.01 0.01 48 1005.2
20260504212033 64 253 4.3 18.2 0.00 0.01 0.01 48 1005.1
20260504211548 64 289 5.2 18.2 0.00 0.01 0.01 47 1005.1
20260504211033 64 245 10.4 16.5 0.00 0.01 0.01 46 1005.2
20260504210537 65 279 6.1 15.6 0.00 0.01 0.01 46 1005.0
20260504210047 65 290 7.0 15.6 0.00 0.01 0.01 46 1005.0
20260504205535 64 288 8.7 13.0 0.00 0.01 0.01 46 1004.9
20260504205035 64 303 6.1 10.4 0.00 0.01 0.01 48 1005.0
20260504204550 64 258 4.3 14.8 0.00 0.01 0.01 49 1005.0
20260504204034 64 286 7.8 18.2 0.00 0.01 0.01 48 1005.1
20260504203534 64 229 9.6 18.2 0.00 0.01 0.01 48 1005.0
20260504203048 64 270 7.0 16.5 0.00 0.01 0.01 49 1005.0
20260504202534 64 221 8.7 16.5 0.00 0.01 0.01 48 1005.1
20260504202034 64 257 7.8 15.6 0.00 0.01 0.01 48 1005.1
20260504201544 63 332 7.0 15.6 0.00 0.01 0.01 49 1005.2
20260504201032 63 265 8.7 18.2 0.00 0.01 0.01 49 1005.1
20260504200534 63 255 7.0 18.2 0.00 0.01 0.01 50 1005.1
20260504200044 64 219 10.4 18.2 0.00 0.01 0.01 49 1005.0
20260504195530 63 247 8.7 19.1 0.00 0.01 0.01 51 1005.1
20260504195032 63 266 9.6 19.1 0.00 0.01 0.01 51 1005.1
20260504194546 63 267 9.6 18.2 0.00 0.01 0.01 54 1005.1
20260504194032 63 211 10.4 18.2 0.00 0.01 0.01 51 1005.2
20260504193538 63 175 7.0 15.6 0.00 0.01 0.01 54 1005.1
20260504193043 62 208 5.2 15.6 0.00 0.01 0.01 56 1005.2
20260504192532 61 181 5.2 10.4 0.00 0.01 0.01 60 1005.3
20260504192037 61 188 2.6 9.6 0.00 0.01 0.01 60 1005.3
20260504191542 61 226 4.3 9.6 0.00 0.01 0.01 61 1005.2
20260504191034 61 217 3.5 9.6 0.00 0.01 0.01 61 1005.3
20260504190532 60 236 5.2 9.6 0.00 0.01 0.01 63 1005.4
20260504190048 59 297 4.3 9.6 0.00 0.01 0.01 65 1005.5
20260504185531 58 262 3.5 13.0 0.00 0.01 0.01 67 1005.6
20260504185035 58 210 3.5 13.0 0.00 0.01 0.01 67 1005.6
20260504184544 57 308 5.2 11.3 0.00 0.01 0.01 67 1005.7
20260504184035 57 246 6.1 11.3 0.00 0.01 0.01 69 1005.8
20260504183535 57 234 6.1 10.4 0.00 0.01 0.01 71 1005.7
20260504183044 57 219 4.3 9.6 0.00 0.01 0.01 74 1005.8
20260504182534 56 274 4.3 8.7 0.00 0.01 0.01 73 1005.8
20260504182036 56 209 2.6 8.7 0.00 0.01 0.01 74 1005.9
20260504181556 55 247 3.5 8.7 0.01 0.01 0.01 75 1005.8
20260504181037 55 201 5.2 8.7 0.01 0.01 0.01 75 1005.8
20260504180536 55 201 3.5 7.0 0.01 0.01 0.01 78 1005.8
20260504180053 54 241 1.7 7.8 0.01 0.01 0.01 77 1005.8
20260504175536 54 256 3.5 7.8 0.01 0.01 0.01 78 1005.8
20260504175040 54 228 2.6 7.8 0.01 0.01 0.01 80 1005.8
20260504174547 53 254 3.5 7.8 0.01 0.01 0.01 81 1005.9
20260504174036 53 204 2.6 6.1 0.01 0.01 0.01 80 1006.0
20260504173536 53 276 1.7 6.1 0.01 0.01 0.01 78 1006.2
20260504173050 53 334 0.9 6.1 0.01 0.01 0.01 78 1006.3
20260504172535 54 295 1.7 8.7 0.01 0.01 0.01 77 1006.4
20260504172036 54 286 3.5 8.7 0.01 0.01 0.01 75 1006.4
20260504171559 54 294 4.3 8.7 0.00 0.00 0.00 74 1006.1
20260504171037 55 296 4.3 9.6 0.00 0.00 0.00 72 1006.0
20260504170540 56 355 4.3 9.6 0.00 0.00 0.00 69 1005.9
20260504151036 55 206 6.1 13.9 0.00 0.07 0.00 60 1005.8
20260504150536 55 221 6.1 13.9 0.00 0.07 0.00 61 1005.9
20260504141036 51 196 5.2 9.6 0.00 0.12 0.00 62 1006.6
20260504140536 51 232 4.3 10.4 0.00 0.12 0.00 62 1006.6
20260504130537 48 192 4.3 7.0 0.00 0.17 0.00 62 1007.5
20260504110534 34 0 0.0 0.0 0.00 0.21 0.00 95 1007.7
20260504100534 30 267 0.0 0.9 0.00 0.22 0.00 94 1007.7
20260504081551 30 0 0.0 1.7 0.00 0.25 0.00 92 1007.5
20260504081036 30 268 0.0 1.7 0.00 0.25 0.00 92 1007.5
20260504080535 30 268 0.0 2.6 0.00 0.25 0.00 92 1007.6
20260504080104 30 0 0.0 2.6 0.00 0.25 0.00 92 1007.4
20260504050536 33 0 0.0 1.7 0.00 0.25 0.00 88 1007.2
20260504045536 33 268 0.9 1.7 0.00 0.25 0.00 88 1007.1
20260504045035 33 0 0.0 0.0 0.00 0.25 0.00 88 1007.0
20260504044544 33 0 0.0 0.0 0.00 0.25 0.00 88 1007.1
20260504044034 33 0 0.0 1.7 0.00 0.25 0.00 88 1007.1
20260504043536 33 0 0.0 1.7 0.00 0.25 0.00 87 1007.1
20260504043054 33 268 0.9 1.7 0.00 0.25 0.00 86 1007.1
20260504042537 34 0 0.0 1.7 0.00 0.25 0.00 86 1007.2
20260504042036 34 268 0.0 1.7 0.00 0.25 0.00 86 1007.1
20260504041545 34 0 0.0 0.9 0.00 0.25 0.00 86 1007.1
20260504041036 34 0 0.0 1.7 0.00 0.25 0.00 86 1007.1
20260504040539 34 268 0.0 2.6 0.00 0.25 0.00 85 1007.1
20260504040104 34 268 0.9 2.6 0.00 0.25 0.00 85 1007.0
20260504035533 35 268 0.9 2.6 0.00 0.25 0.25 84 1007.0
20260504035037 35 268 0.0 0.0 0.00 0.25 0.25 84 1007.0
20260504034546 35 0 0.0 0.0 0.00 0.25 0.25 84 1006.9
20260504034037 35 0 0.0 0.0 0.00 0.25 0.25 83 1006.9
20260504033536 36 0 0.0 0.0 0.00 0.25 0.25 83 1006.9
20260504033045 36 0 0.0 0.0 0.00 0.25 0.25 80 1006.9
20260504032535 36 0 0.0 0.0 0.00 0.25 0.25 80 1006.9
20260504032036 36 0 0.0 0.0 0.00 0.25 0.25 80 1006.8
20260504031543 36 0 0.0 0.9 0.00 0.25 0.25 79 1006.7
20260504031037 37 0 0.0 1.7 0.00 0.25 0.25 77 1006.7
20260504030534 37 0 0.0 1.7 0.00 0.25 0.25 77 1006.6
20260504030050 38 268 0.0 1.7 0.00 0.25 0.25 76 1006.4
20260504025534 38 0 0.0 0.9 0.00 0.29 0.25 76 1006.4
20260504025038 39 0 0.0 0.9 0.00 0.29 0.25 75 1006.4
20260504024549 39 0 0.0 1.7 0.00 0.29 0.25 74 1006.4
20260504024036 39 0 0.0 1.7 0.00 0.29 0.25 71 1006.4
20260504023536 40 268 0.0 2.6 0.00 0.29 0.25 69 1006.3
20260504023057 40 268 0.0 2.6 0.00 0.29 0.25 68 1006.2
20260504022539 41 268 0.9 2.6 0.00 0.29 0.25 66 1006.3
20260504022035 41 268 0.9 2.6 0.00 0.29 0.25 65 1006.3
20260504021552 42 268 0.9 2.6 0.00 0.29 0.25 63 1006.4
20260504021033 42 268 0.9 5.2 0.00 0.29 0.25 60 1006.4
20260504020536 43 268 0.9 7.8 0.00 0.29 0.25 60 1006.3
20260504020050 43 275 1.7 7.8 0.00 0.29 0.25 59 1006.3
20260504015536 43 279 0.9 5.2 0.00 0.31 0.25 58 1006.3
20260504015037 44 274 1.7 5.2 0.00 0.31 0.25 57 1006.3
20260504014558 44 284 0.9 4.3 0.00 0.31 0.25 57 1006.3
20260504014037 44 282 0.0 4.3 0.00 0.31 0.25 56 1006.2
20260504013537 44 290 0.9 3.5 0.00 0.31 0.25 57 1006.2
20260504013048 44 302 0.9 7.0 0.00 0.31 0.25 56 1006.2
20260504012539 45 304 3.5 7.8 0.00 0.31 0.25 56 1006.2
20260504012036 45 285 3.5 9.6 0.00 0.31 0.25 56 1006.1
20260504011546 45 265 2.6 9.6 0.00 0.31 0.25 54 1006.1
20260504011034 44 321 2.6 8.7 0.00 0.31 0.25 55 1006.0
20260504010536 44 273 3.5 8.7 0.00 0.31 0.25 55 1005.9
20260504010051 45 289 0.9 4.3 0.00 0.31 0.25 56 1005.8
20260504005539 45 300 1.7 9.6 0.00 0.34 0.25 53 1005.7
20260504005036 46 310 2.6 9.6 0.00 0.34 0.25 52 1005.7
20260504004550 46 298 5.2 9.6 0.00 0.34 0.25 52 1005.6
20260504004036 46 310 4.3 10.4 0.00 0.34 0.25 51 1005.5
20260504003536 46 300 3.5 10.4 0.00 0.34 0.25 51 1005.5
20260504003052 46 323 4.3 10.4 0.00 0.34 0.25 50 1005.3
20260504002536 46 309 3.5 7.8 0.00 0.34 0.25 50 1005.2
20260504002036 46 0 2.6 7.8 0.00 0.34 0.25 50 1005.2
20260504001603 47 311 3.5 10.4 0.00 0.34 0.25 50 1005.1
20260504001037 47 309 4.3 10.4 0.00 0.34 0.25 49 1005.1
20260504000536 47 294 5.2 12.2 0.00 0.34 0.25 49 1005.0
20260504000115 47 316 5.2 12.2 0.00 0.34 0.25 49 1005.0
20260503235538 47 327 2.6 8.7 0.00 0.42 0.25 48 1004.9
20260503235038 47 325 4.3 8.7 0.00 0.42 0.25 48 1004.8
20260503234544 47 292 3.5 8.7 0.00 0.42 0.25 48 1004.8
20260503234034 47 321 4.3 7.8 0.00 0.42 0.25 47 1004.7
20260503233537 48 288 3.5 15.6 0.00 0.42 0.25 47 1004.5
20260503233045 48 317 7.0 15.6 0.00 0.42 0.25 46 1004.6
20260503232533 48 325 7.8 16.5 0.00 0.42 0.25 45 1004.5